Regional Weather Roundup
Issued by NWS Grand Forks, ND

Home | Current Version | Previous Version | Graphics & Text | Print | Product List | Glossary On
Versions: 1 2 3 4 5 6 7 8 9 10 11 12 13 14 15 16 17 18 19 20 21 22 23 24 25 26 27 28 29 30 31 32 33 34 35 36 37 38 39 40 41 42 43 44 45 46 47 48 49 50
316
ASUS43 KFGF 142131
RWRFGF
PRAIRIE TO PINES  WEATHER ROUNDUP
NATIONAL WEATHER SERVICE EASTERN NORTH DAKOTA/GRAND FORKS ND
300 PM CST SUN FEB 14 2016

 **SATELLITE DATA USED TO AUGMENT SKY COVER AT AUTOMATED STATIONS**
 *****  WEATHER ACROSS EASTERN NORTH DAKOTA  *****

CITY           SKY/WX    TMP DP  RH WIND       PRES   REMARKS
GRAND FORKS    LGT SNOW  19  14  81 S16       29.74S WCI   4
GRAND FRKS AFB CLOUDY    19  16  86 SW12      29.72S WCI   7
DEVILS LAKE    CLOUDY    25  21  86 W10       29.69R WCI  15
FARGO          CLOUDY    19  14  81 S20       29.77F HAZE    WCI   3
WAHPETON ARPT  CLOUDY    19  14  79 S14       29.80S WCI   6
$$

 ***** WEATHER ACROSS CENTRAL AND WESTERN NORTH DAKOTA  *****

CITY           SKY/WX    TMP DP  RH WIND       PRES   REMARKS
BISMARCK       PTSUNNY   44  30  57 W9        29.71F
MINOT          MOSUNNY   38  26  62 W10       29.68F
JAMESTOWN      CLOUDY    29  24  82 NW10      29.70R WCI  20
MINOT AFB      MOSUNNY   37  35  94 CALM      29.67S
GARRISON         N/A     37  29  72 NW14      29.68F
WILLISTON      PTSUNNY   37  29  72 SW6       29.69F
DICKINSON      CLOUDY    38  30  73 W13       29.68F
HETTINGER      CLOUDY    39  32  76 W20       29.74R
$$

 *****  OTHER AIRPORT OBSERVATIONS IN OUR AREA  *****

CITY           SKY/WX    TMP DP  RH WIND       PRES   REMARKS
WALHALLA         N/A     23  19  86 SW5       29.70R WCI  17
GRAFTON AIRPOR CLOUDY    18  14  86 S14       29.74F WCI   4
VALLEY CITY AR NOT AVBL
CANDO          CLOUDY    25  23  93 W10       29.69S WCI  15
CAVALIER APRT  NOT AVBL
GWINNER        CLOUDY    23  21  93 SW14      29.75S WCI  11
SHEYENNE NWR     N/A     20  15  79 S7        29.95S WCI  11
ROLLA          CLOUDY    27  23  86 N10       29.65R WCI  17
 ***** THE ABOVE OBSERVATIONS ARE NON NWS ARE NOT QUALITY
       CONTROLLED AND MAY MIS-REPORT RAIN FOR SNOW...
$$

  *****  WEATHER ACROSS NORTHERN MINNESOTA  *****

CITY           SKY/WX    TMP DP  RH WIND       PRES   REMARKS
FLAG ISLAND    LGT SNOW  12   9  85 S21       29.75F VSB 1   WCI  -6
WARROAD        LGT SNOW  16  10  79 S10       29.76S VSB 1   WCI   3
ROSEAU         LGT SNOW  16  10  79 S17       29.74F WCI   0
HALLOCK        LGT SNOW  18  16  93 S17       29.73S WCI   2
THF RVR FALLS  CLOUDY    16  12  86 S21       29.75F WCI  -2
BAUDETTE       LGT SNOW  13   7  77 S14       29.77S WCI  -2
WASKISH        LGT SNOW  16  10  79 S8        29.79S WCI   5
CROOKSTON      FOG       18  16  93 S17       29.77S VSB 1   WCI   2
STEPHEN NDAWN    N/A     16  14  93 S17         N/A  WCI   0
GREENBUSH NDAW   N/A     16  14  93 S16         N/A  WCI   0
$$
  *****  WEATHER ACROSS CENTRAL AND WEST MINNESOTA  *****

CITY           SKY/WX    TMP DP  RH WIND       PRES   REMARKS
FOSSTON        LGT SNOW  14  10  85 S18       29.76S WCI  -3
BEMIDJI        LGT SNOW  14  10  82 S10G16    29.77F WCI   1
PARK RAPIDS    LGT SNOW  16  10  77 S15       29.78S WCI   1
ELBOW LAKE     CLOUDY    17  14  88 S16       29.82S FOG     WCI   2
WADENA         LGT SNOW  16  10  79 S12       29.80S WCI   3
DETROIT LAKES  LGT SNOW  18  14  86 S13G20    29.77F WCI   4
MOORHEAD       MIX PCPN  18  14  86 S14       29.78F WCI   4
FERGUS FALLS   CLOUDY    18  12  79 S18       29.83F WCI   2
MORRIS MN      CLOUDY    19  14  79 S15       29.81F WCI   5
STAPLES        LGT SNOW  16  12  86 S9        29.82S WCI   4
$$
  *****  WEATHER ELSEWHERE ACROSS MINNESOTA  *****

CITY           SKY/WX    TMP DP  RH WIND       PRES   REMARKS
DULUTH         FLURRIES  13   5  70 SE12      29.89S WCI  -1
INTRNTL FALLS  SNOW      12   7  80 SE9       29.82F VSB 1/2 WCI   0
ELY            LGT SNOW  14   9  79 S9        29.86F WCI   2
CLOQUET        CLOUDY    16   5  62 SE8       29.88F WCI   5
WHEATON        SUNNY     21  16  79 S9        29.82F WCI  11
BRAINERD       LGT SNOW  16  11  80 S8        29.85R VSB 3/4 WCI   5
HIBBING        LGT SNOW  12   7  80 S10G18    29.84F WCI  -1
ALEXANDRIA     CLOUDY    17  12  80 S13       29.81S HAZE    WCI   4
SAINT CLOUD    LGT SNOW  18  11  74 S15       29.87F WCI   4
MINNEAPOLIS    LGT SNOW  18  12  77 SE12      29.92F WCI   5
$$

  *****  WEATHER ACROSS SOUTH DAKOTA  *****

CITY           SKY/WX    TMP DP  RH WIND       PRES   REMARKS
SIOUX FALLS    CLOUDY    21  15  78 S7        29.81R WCI  12
BROOKINGS      CLOUDY    20  15  81 S10       29.78S WCI   9
WATERTOWN      CLOUDY    20  15  81 S8        29.74S WCI  10
HURON          CLOUDY    27  22  81 S9        29.78S WCI  18
SISSETON         N/A     20  15  81 S9        29.78S WCI   9
ABERDEEN       CLOUDY    26  20  77 S7        29.77S WCI  18
MITCHELL       CLOUDY    28  23  81 S5        29.79F WCI  23
PIERRE         CLOUDY    38  31  76 W9        29.76S
MOBRIDGE       PTSUNNY   39  30  70 NW7       29.70F
RAPID CITY     CLOUDY    40  34  79 N8        29.78S
$$

  *****  SOME WEATHER IN NEARBY STATES *****

CITY           SKY/WX    TMP DP  RH WIND       PRES   REMARKS
GLASGOW MT     MOSUNNY   45  31  58 NW9       29.71S
GREAT FALLS MT SUNNY     50  17  27 NW30G39   29.85S
CHEYENNE WY    CLOUDY    44  21  40 NW30G48   29.85F
SCOTTSBLUFF NE CLOUDY    53  25  33 W23G35    29.79F
OMAHA NE       CLOUDY    36  27  69 W12       29.83R
DES MOINES IA  CLOUDY    24  17  74 SE10      29.86F WCI  14
DAVENPORT IA   LGT SNOW  20  14  77 SE20      29.99F WCI   4
CHICAGO IL     LGT SNOW  18  14  84 SE15      30.11F VSB 3/4 WCI   4
EAU CLAIRE WI  CLOUDY    17   8  67 SE14G23   29.98F WCI   3
LA CROSSE WI   CLOUDY    19   9  65 SE17      30.00F WCI   4
$$

  *****  SOME NATIONAL WEATHER *****

CITY           SKY/WX    TMP DP  RH WIND       PRES   REMARKS
LA GUARDIA NY  SUNNY     16 -13  26 NW8       30.48F WCI   5
RALEIGH NC     CLOUDY    30  -4  23 S5        30.46R
ATLANTA GA     CLOUDY    47  16  29 S13       30.22F
NEW ORLEANS LA PTSUNNY   70  50  49 S14G26    30.07F
OKLAHOMA CITY  CLOUDY    54  36  50 N10       29.89F
ALBUQUERQUE NM CLOUDY    62  12  14 W7        30.00F
SALT LAKE CITY CLOUDY    40  35  83 S7        30.24S HAZE
LOS ANGELES CA MOSUNNY   62  53  72 W12       30.01F HAZE
BOISE ID       CLOUDY    47  42  83 N6        30.25F
SEATTLE WA     CLOUDY    52  49  89 S18       30.12F
$$

*** WEATHER ACROSS MANITOBA...SASKATCHEWAN AND ONTARIO ***
                ***ONTARIO***

CITY           SKY/WX    TMP DP  RH WIND       PRES   REMARKS
GERALDTON      MOSUNNY   19   5  53 SW16G24   29.98F WCI   5
THUNDER BAY    PTSUNNY   21   9  58 S14       30.01F WCI   8
SIOUX LOOKOUT  FLURRIES  16   3  57 S12G17    29.78F WCI   3
TORONTO        MOSUNNY   12  -2  52 VRB5      30.43F WCI   4
BIG TROUT LK   FLURRIES  16   7  67 S14G22    29.66F WCI   1
PICKLE LAKE    PTSUNNY   16  -2  45 S10G21    29.78F WCI   3
DRYDEN         LGT SNOW  12   9  85 S9        29.77S WCI   0
KENORA         LGT SNOW  12   9  85 S13       29.74F DRFTSNOWWCI  -3
$$
                *** MANITOBA***

CITY           SKY/WX    TMP DP  RH WIND       PRES   REMARKS
BRANDON        CLOUDY    25  21  86 W14       29.65S WCI  13
DAUPHIN        PTSUNNY   25  21  86 W13       29.60F WCI  13
ISLAND LAKE    LGT SNOW  12   7  79 S9        29.57F DRFTSNOWWCI   0
PILOT MOUND      N/A     23  18  80 W7          N/A  WCI  15
THE PAS        CLOUDY    25  23  93 W8        29.51S WCI  16
THOMPSON       FRZ DRZL  12   9  85 SW8       29.43F WCI   1
WINNIPEG       FLURRIES  16  12  86 S18       29.71S WCI  -1
LYNN LAKE      FLURRIES  16  12  86 NW12G18   29.39R WCI   3
CHURCHILL      FLURRIES   7   1  78 SW7       29.45S WCI  -5
GILLAM         FLURRIES  10   5  79 SW12G20   29.45F WCI  -4
$$
                ***SASKATCHEWAN***

CITY           SKY/WX    TMP DP  RH WIND       PRES   REMARKS
ESTEVAN        PTSUNNY   34  28  80 SW8       29.66
KINDERSLEY     MOSUNNY   30  23  74 NW6       29.68F WCI  24
LLOYDMINSTER   PTSUNNY   36  30  80 W15       29.65S
PRINCE ALBERT  PTSUNNY   37  27  65 W16       29.56F
REGINA         PTSUNNY   39  28  65 W10       29.65S
YORKTON        SUNNY     30  25  80 SW8       29.59F WCI  23
N. BATTLEFORD  SUNNY     34  25  69 W8        29.66S
LA RONGE       PTSUNNY   28  21  74 NW18G25   29.53R WCI  16
SASKATOON      MOSUNNY   36  28  75 W10       29.66S
SWIFT CURRENT  SUNNY     34  27  75 W13       29.67R WCI  25
$$
NOTE: THESE ARE AUTOMATED STATIONS WITH LIMITED QUALITY CONTROL
      "FAIR" INDICATES FEW OR NO CLOUDS BELOW 12,000 FEET WITH NO
      SIGNIFICANT WEATHER AND/OR OBSTRUCTIONS TO VISIBILITY.
      SKY/WX - SKY CONDITION AND SIGNIFICANT WEATHER.
      TMP - AIR TEMPERATURE.    DP   - DEWPOINT TEMPERATURE.
      RH  - RELATIVE HUMIDITY.  PRES - PRESSURE.
      HX  - HEAT INDEX.         WCI  - WIND CHILL INDEX.
$




USA.gov is the U.S. government's official web portal to all federal, state and local government web resources and services.